Terminal Aerodrome Forecast
Issued by NWS

Home | Current Version | Previous Version | Text Only | Print | Product List | Glossary On
Versions: 1 2 3 4 5 6 7 8 9 10 11 12
000
FTUS46 KHNX 230500
TAFFAT
TAF
KFAT 230520Z 2306/2406 31010KT P6SM SCT120
     FM231000 32006KT P6SM FEW200
     FM232000 33012KT P6SM FEW200=

USA.gov is the U.S. government's official web portal to all federal, state and local government web resources and services.